Weather History for Clinton-Sherman, OK

Change the Weather History Date:

Sunday, June 10, 2012

  Actual Average Record
Temperature  
Mean Temperature 87 °F -  
Max Temperature 104 °F 85 °F 104 °F (2012)
Min Temperature 72 °F 62 °F 57 °F (2008)
Cooling Degree Days 22    
Growing Degree Days 37 (Base 50)    
Moisture  
Dew Point 61 °F    
Average Humidity 49    
Maximum Humidity 78    
Minimum Humidity 14    
Precipitation  
Precipitation 0.00 in - - ()
Sea Level Pressure  
Sea Level Pressure 29.60 in    
Wind  
Wind Speed 20 mph (South)    
Max Wind Speed 26 mph    
Max Gust Speed 37 mph    
Visibility 10 miles    
Events      
Averages and records for this station are not official NWS values.
T = Trace of Precipitation, MM = Missing Value Source: NWS Daily Summary

Daily Weather History Graph

Daily Weather History Graph

Search for Another Location

Airport:

Trip Planner

Search our weather history database for the weather conditions in past years. The results will help you decide how hot, cold, wet, or windy it might be!

Date:

Astronomy

Jun. 10, 2012 Rise Set
Actual Time 6:21 AM CDT 8:51 PM CDT
Civil Twilight 5:51 AM CDT 9:21 PM CDT
Nautical Twilight 5:14 AM CDT 9:58 PM CDT
Astronomical Twilight 4:34 AM CDT 10:38 PM CDT
Moon 12:56 AM CDT (6/10) 12:58 PM CDT (6/10)
Length of Visible Light 15h 29m
Length of Day
14h 30m
Waning Gibbous, 58% of the Moon is Illuminated
Jun 10
Waning Gibbous
Jun 11
Last Quarter
Jun 19
New
Jun 26
First Quarter
Jul 3
Full

Hourly Weather History & Observations

Time (CDT) Temp. Heat Index Dew Point Humidity Pressure Visibility Wind Dir Wind Speed Gust Speed Precip Events Conditions
12:53 AM 77.0 °F - 64.0 °F 64% 29.63 in 10.0 mi SSE 19.6 mph 28.8 mph N/A   Clear
1:53 AM 75.9 °F - 64.0 °F 67% 29.62 in 10.0 mi SSE 23.0 mph - N/A   Clear
2:53 AM 75.0 °F - 64.0 °F 69% 29.59 in 10.0 mi SSE 23.0 mph 31.1 mph N/A   Clear
3:53 AM 73.9 °F - 64.0 °F 71% 29.58 in 10.0 mi SSE 21.9 mph 28.8 mph N/A   Clear
4:53 AM 73.0 °F - 64.0 °F 73% 29.58 in 10.0 mi South 21.9 mph 29.9 mph N/A   Clear
5:53 AM 72.0 °F - 64.9 °F 78% 29.57 in 10.0 mi South 21.9 mph 31.1 mph N/A   Clear
6:53 AM 72.0 °F - 64.9 °F 78% 29.57 in 10.0 mi South 25.3 mph 35.7 mph N/A   Clear
7:53 AM 73.0 °F - 64.9 °F 76% 29.57 in 10.0 mi South 26.5 mph 36.8 mph N/A   Clear
8:53 AM 78.1 °F - 64.9 °F 64% 29.58 in 10.0 mi South 25.3 mph 36.8 mph N/A   Clear
9:53 AM 82.0 °F 83.8 °F 64.9 °F 56% 29.60 in 10.0 mi South 26.5 mph 35.7 mph N/A   Clear
10:53 AM 84.9 °F 86.1 °F 64.0 °F 49% 29.60 in 10.0 mi South 24.2 mph 32.2 mph N/A   Clear
11:53 AM 90.0 °F 90.3 °F 62.1 °F 39% 29.59 in 10.0 mi SSW 18.4 mph 27.6 mph N/A   Clear
12:53 PM 93.9 °F 93.6 °F 60.1 °F 32% 29.59 in 10.0 mi SSW 19.6 mph 25.3 mph N/A   Clear
1:53 PM 95.0 °F 94.4 °F 59.0 °F 30% 29.59 in 10.0 mi South 18.4 mph 26.5 mph N/A   Clear
2:53 PM 99.0 °F 98.1 °F 57.0 °F 25% 29.58 in 10.0 mi South 17.3 mph 21.9 mph N/A   Clear
3:53 PM 100.9 °F - 51.1 °F 19% 29.57 in 10.0 mi SSW 13.8 mph 23.0 mph N/A   Clear
4:53 PM 102.9 °F - 45.0 °F 14% 29.57 in 10.0 mi SW 15.0 mph 20.7 mph N/A   Clear
5:53 PM 102.9 °F - 52.0 °F 18% 29.56 in 10.0 mi South 12.7 mph - N/A   Clear
6:53 PM 98.1 °F 96.4 °F 55.9 °F 24% 29.58 in 10.0 mi NW 15.0 mph - N/A   Clear
7:53 PM 95.0 °F 93.0 °F 55.0 °F 26% 29.61 in 10.0 mi North 4.6 mph - N/A   Clear
8:53 PM 90.0 °F 88.1 °F 55.9 °F 31% 29.63 in 10.0 mi Calm Calm - N/A   Clear
9:53 PM 87.1 °F 88.9 °F 64.9 °F 48% 29.65 in 10.0 mi SSE 9.2 mph - N/A   Clear
10:53 PM 84.0 °F 86.3 °F 66.0 °F 55% 29.66 in 10.0 mi SE 10.4 mph - N/A   Clear
11:53 PM 82.9 °F 85.8 °F 68.0 °F 60% 29.66 in 10.0 mi SE 13.8 mph - N/A   Clear